www.pogodaiklimat.ru

Погода и климат >> Архив погоды >> Португалия >> Фару


ПОГОДА в Фару

  • Прогноз погоды в Фару
  • Монитор погоды в Фару

АРХИВ ПОГОДЫ в Фару

Время (UTC), дата Ветер
(напр.,м/с)
 
Видим.   Явления Облачность Т
(С)
Тd
(С)
f
(%)
Тe
(С)
Тes
(С)
Комфортность P
(гПа)
Po
(гПа)
Тmin
(С)
Tmax
(С)
R
(мм)
R24
(мм)
S
(см)
10 15.05 СЗ 3 н/о н/о +24.9 +8.2 35 +25 +25 комфорт 1014.1 1013.2
11 15.05 СЗ 4
{6}
н/о н/о +24.5 +13.1 49 +27 +27 жарко 1014.0 1013.0
12 15.05 З 5 20 км 1/0
[Ci fib]
+25.0 +11.7 43 +26 +37 жарко 1013.6 1012.7
13 15.05 З 5 н/о н/о +22.9 +13.4 55 +26 +26 жарко 1013.4 1012.4
14 15.05 З 5 н/о н/о +24.2 +14.8 56 +27 +27 жарко 1012.6 1011.7
15 15.05 З 6 н/о н/о +24.4 +15.6 58 +27 +27 жарко 1011.9 1010.9
16 15.05 З 7 н/о н/о +26.1 +14.1 48 +28 +28 жарко 1011.3 1010.4
17 15.05 З 7 н/о н/о +26.4 +14.9 49 +29 +29 жарко 1011.0 1010.1
18 15.05 З 6 25 км 1/0
[Ci fib]
+27.4 +11.9 38 +29 +29 жарко 1010.8 1009.9 +27.9
19 15.05 СЗ 5
{9}
н/о н/о +29.9 +7.1 24 +29 +29 жарко 1011.0 1010.1
20 15.05 СЗ 5 н/о н/о +26.7 +8.9 33 +27 +27 жарко 1011.6 1010.7
21 15.05 штиль 0
{7}
н/о н/о +25.2 +10.2 39 +26 +26 жарко 1012.1 1011.2
22 15.05 З 5 н/о н/о +21.6 +13.0 58 +24 +24 комфорт 1012.4 1011.5
23 15.05 З 4 н/о н/о +20.0 +13.3 65 +22 +22 комфорт 1012.4 1011.4
00 16.05 З 4 20 км ясно +20.2 +11.5 57 +22 +22 комфорт 1012.1 1011.1
01 16.05 СЗ 4 н/о н/о +21.1 +8.4 44 +22 +22 комфорт 1011.7 1010.7
02 16.05 З 4 н/о н/о +19.7 +9.4 51 +21 +21 комфорт 1011.6 1010.6
03 16.05 З 3
{5}
н/о н/о +17.8 +11.1 65 +18 +18 1011.6 1010.6
04 16.05 З 4 н/о н/о +17.2 +12.0 71 +17 +17 1011.5 1010.6
05 16.05 З 5 н/о н/о +17.6 +11.1 66 +17 +17 1011.5 1010.6
06 16.05 З 5 н/о н/о +17.6 +11.5 67 +17 +17 1011.8 1010.9 +17.1
07 16.05 З 5
{8}
н/о н/о +19.3 +10.9 58 +20 +20 1011.9 1011.0
08 16.05 З 4
{7}
н/о н/о +22.4 +11.1 49 +25 +25 комфорт 1012.4 1011.5
09 16.05 З 5 н/о н/о +25.0 +9.6 38 +26 +30 жарко 1012.7 1011.7
10 16.05 З 7 н/о н/о +24.7 +13.7 50 +27 +27 жарко 1012.6 1011.7
11 16.05 З 9 н/о н/о +25.3 +12.4 45 +27 +27 жарко 1012.8 1011.9
12 16.05 З 9 18 км 6/0
[Cs]
+23.7 +15.2 59 +27 +28 жарко 1012.8 1011.9
13 16.05 З 9 н/о н/о +24.4 +15.5 58 +27 +27 жарко 1012.6 1011.6
14 16.05 З 9 н/о н/о +24.1 +15.8 60 +27 +27 жарко 1012.3 1011.4
15 16.05 З 10 н/о н/о +23.4 +15.1 60 +28 +28 душно 1011.9 1011.0
16 16.05 СЗ 7
{13}
н/о н/о +26.8 +9.4 33 +27 +27 жарко 1011.6 1010.7
17 16.05 З 10 н/о н/о +25.4 +12.0 43 +27 +27 жарко 1011.8 1010.9
18 16.05 СЗ 9 н/о н/о +23.3 +12.7 51 +26 +26 жарко 1012.1 1011.2 +27.3
19 16.05 СЗ 6
{12}
н/о н/о +21.0 +12.9 60 +23 +23 комфорт 1013.0 1012.1
20 16.05 СЗ 6-10
{11}
н/о н/о +20.0 +12.6 62 +21 +21 комфорт 1013.7 1012.8
21 16.05 СЗ 5-9
{9}
н/о н/о +18.7 +10.8 60 +19 +19 1014.7 1013.8
22 16.05 СЗ 7-12
{12}
н/о н/о +17.5 +8.2 54 +17 +17 1015.4 1014.5
23 16.05 СЗ 4-8
{12}
н/о н/о +16.2 +7.2 55 +16 +16 1015.7 1014.8
00 17.05 С 5-10
{10}
н/о н/о +15.7 +5.3 50 +15 +15 1015.5 1014.6
01 17.05 С 5-9
{9}
н/о н/о +15.1 +6.6 57 +14 +14 1015.5 1014.6
02 17.05 С 4-7
{10}
н/о н/о +14.7 +5.7 55 +14 +14 1015.5 1014.6
03 17.05 СЗ 4-7
{10}
н/о н/о +14.3 +6.2 58 +13 +13 1015.9 1015.0
04 17.05 СЗ 2-6
{8}
н/о н/о +14.1 +5.2 55 +14 +14 1016.2 1015.2
05 17.05 СЗ 2
{7}
н/о н/о +13.6 +6.0 60 +13 +13 1016.7 1015.7
06 17.05 СЗ 3-8
{8}
25 км 8/1 1050 м
[Sc Cs]
+13.9 +6.9 63 +13 +13 1017.1 1016.1 +13.3
07 17.05 С 6-11
{11}
н/о н/о +15.2 +6.0 54 +14 +14 1017.2 1016.2
08 17.05 С 5-10
{11}
н/о н/о +16.2 +6.2 51 +15 +15 1017.3 1016.3
09 17.05 С 6-10
{11}
20 км 8/0
[Ci sp]
+18.2 +4.5 40 +18 +21 1017.4 1016.5
10 17.05 С 6-10
{11}
н/о н/о +19.3 +5.2 40 +19 +19 1017.4 1016.4
11 17.05 С 6-9
{10}
н/о н/о +19.9 +4.9 37 +20 +20 1017.4 1016.4
12 17.05 С 4-8
{9}
н/о н/о +21.1 +6.1 38 +22 +22 комфорт 1017.2 1016.3
13 17.05 СЗ 5-11
{11}
н/о н/о +22.9 +5.3 32 +23 +23 комфорт 1016.8 1015.9
14 17.05 З 8 н/о н/о +20.7 +10.4 52 +22 +22 комфорт 1016.1 1015.1
15 17.05 З 7 20 км 9/0
[Ci sp]
+20.9 +12.3 58 +23 +26 комфорт 1015.5 1014.6
16 17.05 З 5
{9}
н/о н/о +21.8 +12.6 56 +24 +24 комфорт 1014.5 1013.6
17 17.05 СЗ 6-10
{10}
н/о н/о +24.0 +5.7 31 +24 +24 комфорт 1014.4 1013.5
18 17.05 СЗ 9 н/о н/о +20.7 +9.3 48 +22 +22 комфорт 1014.6 1013.7 +25.0
19 17.05 СЗ 8
{12}
н/о н/о +18.8 +8.5 51 +19 +19 1015.2 1014.2
20 17.05 СЗ 6
{13}
н/о н/о +17.6 +8.8 56 +17 +17 1016.1 1015.2
21 17.05 СЗ 5
{10}
н/о н/о +16.8 +9.0 60 +16 +16 1016.7 1015.8
22 17.05 СЗ 4-6
{9}
н/о н/о +16.4 +7.9 57 +16 +16 1017.0 1016.1
23 17.05 СЗ 5-8
{11}
н/о н/о +15.8 +6.8 55 +15 +15 1016.7 1015.7
00 18.05 СЗ 4-7
{7}
20 км 8/0
[Ci fib]
+15.3 +5.8 53 +14 +14 1016.6 1015.6
01 18.05 СЗ 5-8
{8}
н/о н/о +14.9 +5.7 54 +14 +14 1016.6 1015.6
02 18.05 СЗ 4-9
{9}
н/о н/о +14.2 +6.3 59 +13 +13 1016.0 1015.0
03 18.05 СЗ 4-6
{7}
н/о н/о +14.0 +6.1 59 +13 +13 1015.6 1014.7
04 18.05 С 3-7
{7}
н/о н/о +14.0 +6.4 60 +13 +13 1015.8 1014.8
05 18.05 СЗ 2
{5}
н/о н/о +13.5 +6.2 61 +13 +13 1016.0 1015.0
06 18.05 СЗ 3
{6}
н/о н/о +13.7 +6.5 62 +13 +13 1016.7 1015.8 +13.2
07 18.05 СЗ 3-5
{8}
н/о н/о +14.9 +7.6 62 +14 +14 1017.0 1016.1
08 18.05 С 5-8
{8}
н/о н/о +16.0 +6.5 53 +15 +15 1017.0 1016.0
09 18.05 С 5-9
{9}
н/о н/о +17.4 +6.2 48 +17 +21 1017.1 1016.1
10 18.05 СЗ 5-10
{10}
н/о н/о +18.9 +5.3 41 +19 +19 1017.0 1016.0
11 18.05 С 4-10
{10}
н/о н/о +20.1 +5.5 38 +21 +21 комфорт 1016.8 1015.9
12 18.05 СЗ 6-10
{11}
н/о н/о +20.6 +5.9 38 +21 +21 комфорт 1016.5 1015.5
13 18.05 З 6-10
{11}
н/о н/о +20.5 +9.2 48 +22 +22 комфорт 1016.0 1015.0
14 18.05 СЗ 6-9
{10}
н/о н/о +22.8 +6.6 35 +23 +23 комфорт 1015.4 1014.4
15 18.05 СЗ 5-13
{13}
н/о н/о +23.1 +7.0 35 +24 +24 комфорт 1014.9 1014.0
16 18.05 СЗ 6-10
{12}
н/о н/о +23.1 +7.5 37 +24 +24 комфорт 1014.8 1013.9
17 18.05 З 9 н/о н/о +22.1 +8.7 42 +23 +23 комфорт 1015.3 1014.3
18 18.05 З 8
{14}
н/о н/о +20.7 +8.7 46 +22 +22 комфорт 1015.6 1014.7 +24.2
19 18.05 СЗ 6
{12}
н/о н/о +19.2 +8.5 50 +20 +20 1016.0 1015.1
20 18.05 СЗ 5
{9}
н/о н/о +17.7 +8.4 54 +17 +17 1016.7 1015.7
21 18.05 СЗ 6
{9}
н/о н/о +16.6 +8.7 60 +16 +16 1017.2 1016.3
22 18.05 СЗ 6
{9}
н/о н/о +15.5 +9.9 69 +14 +14 1017.5 1016.6
23 18.05 СЗ 3
{8}
н/о н/о +15.0 +9.7 71 +14 +14 1017.3 1016.3
00 19.05 З 5 20 км 9/0
[Ci sp]
+15.1 +10.2 73 +14 +14 1017.0 1016.0
01 19.05 СЗ 6
{9}
н/о н/о +15.2 +10.7 74 +14 +14 1016.9 1015.9
02 19.05 СЗ 5-8
{8}
н/о н/о +15.1 +10.7 75 +14 +14 1016.1 1015.2
03 19.05 З 5 н/о н/о +15.1 +10.9 76 +14 +14 1015.9 1015.0
04 19.05 СЗ 4
{7}
н/о н/о +15.2 +11.2 77 +14 +14 1015.9 1014.9
05 19.05 СЗ 4
{6}
н/о н/о +15.1 +10.9 76 +14 +14 1015.9 1014.9
06 19.05 СЗ 2
{5}
н/о н/о +15.0 +11.7 81 +15 +15 1016.0 1015.1 +14.9
07 19.05 СЗ 2 н/о н/о +15.8 +11.4 75 +16 +16 1016.1 1015.2
08 19.05 СЗ 3-5
{6}
н/о н/о +17.3 +11.8 70 +17 +17 1016.5 1015.5
09 19.05 З 4
{6}
н/о н/о +17.5 +12.8 74 +17 +17 1016.5 1015.6
10 19.05 СЗ 5 н/о н/о +18.3 +12.6 69 +18 +18 1016.2 1015.2
11 19.05 СЗ 7 н/о н/о +19.2 +13.4 69 +20 +20 1016.0 1015.0
12 19.05 З 7 20 км 3/1 720 м
[Cu med, cong Ac trans Ci fib]
+19.8 +14.0 69 +21 +26 комфорт 1015.9 1015.0
13 19.05 З 7 н/о н/о +18.6 +14.8 79 +19 +19 1015.7 1014.8
14 19.05 З 7 н/о н/о +18.9 +14.6 76 +19 +19 1015.5 1014.5
15 19.05 З 7
{11}
н/о н/о +19.1 +15.1 78 +20 +21 1015.0 1014.1
16 19.05 З 9 н/о н/о +19.6 +15.1 75 +21 +21 комфорт 1014.0 1013.1
17 19.05 З 9 н/о н/о +19.3 +14.9 76 +20 +20 1013.7 1012.7
18 19.05 З 9 20 км 6/1 720 м
[Cu hum Ci fib]
+18.3 +15.2 82 +18 +18 1013.7 1012.7 +20.5
19 19.05 З 7
{13}
н/о н/о +18.5 +14.2 76 +18 +18 1013.9 1013.0
20 19.05 З 4
{9}
н/о н/о +18.5 +12.9 70 +19 +19 1014.3 1013.4
21 19.05 З 4
{6}
н/о н/о +18.4 +12.5 68 +19 +19 1014.9 1013.9
22 19.05 З 5 н/о н/о +17.5 +12.5 72 +17 +17 1015.1 1014.2
23 19.05 З 4
{7}
н/о н/о +16.4 +13.3 82 +16 +16 1015.0 1014.1
00 20.05 З 3
{5}
н/о н/о +15.6 +12.6 82 +15 +15 1014.8 1013.9
01 20.05 З 4 н/о н/о +15.4 +12.1 81 +14 +14 1014.4 1013.4
02 20.05 З 4 н/о н/о +15.1 +12.2 83 +14 +14 1013.9 1013.0
03 20.05 З 3
{5}
н/о н/о +14.7 +12.0 84 +14 +14 1013.7 1012.8
04 20.05 З 3 н/о н/о +14.5 +12.0 85 +14 +14 1013.7 1012.7
05 20.05 СЗ 2 н/о н/о +14.2 +10.1 76 +14 +14 1013.8 1012.9
06 20.05 С 1 н/о н/о +14.5 +10.3 76 +15 +15 1014.5 1013.5 +13.5
07 20.05 СЗ 1 н/о н/о +16.6 +10.3 66 +18 +18 1015.0 1014.1
08 20.05 З 3 н/о н/о +19.1 +3.5 36 +20 +20 1015.5 1014.6
09 20.05 СЗ 4-8
{8}
н/о н/о +18.7 +4.4 39 +19 +19 1015.6 1014.6
10 20.05 СЗ 5 н/о н/о +19.2 +3.6 36 +19 +19 1015.7 1014.8
11 20.05 СЗ 6 н/о н/о +20.7 +8.7 46 +22 +22 комфорт 1015.6 1014.6
12 20.05 З 8 25 км 3/0
[Ci fib]
+19.6 +9.2 51 +20 +23 1015.5 1014.5
13 20.05 СЗ 7 н/о н/о +20.3 +10.9 55 +22 +22 комфорт 1015.1 1014.2
14 20.05 СЗ 7 н/о н/о +21.4 +12.2 56 +24 +24 комфорт 1014.6 1013.7
15 20.05 З 8 н/о н/о +22.2 +13.8 59 +25 +28 комфорт 1014.0 1013.1
16 20.05 З 10 н/о н/о +21.3 +13.6 61 +24 +24 комфорт 1013.6 1012.6
17 20.05 З 9 н/о н/о +21.5 +13.3 60 +24 +24 комфорт 1013.6 1012.7
18 20.05 З 8
{12}
н/о н/о +24.0 +10.8 43 +25 +25 комфорт 1013.7 1012.8 +24.5
19 20.05 СЗ 7
{11}
н/о н/о +21.7 +11.0 51 +24 +24 комфорт 1014.2 1013.3
20 20.05 СЗ 8 н/о н/о +19.2 +11.7 62 +20 +20 1015.0 1014.1
21 20.05 СЗ 6-10
{10}
н/о н/о +18.2 +11.6 65 +18 +18 1015.7 1014.8
22 20.05 СЗ 4-9
{10}
н/о н/о +17.4 +11.0 66 +17 +17 1016.0 1015.1
23 20.05 СЗ 6
{10}
н/о н/о +16.9 +10.9 68 +16 +16 1016.0 1015.0
00 21.05 СЗ 4-8
{10}
н/о н/о +16.3 +11.4 73 +16 +16 1015.9 1014.9
01 21.05 СЗ 7 н/о н/о +15.8 +11.5 76 +14 +14 1015.7 1014.7
02 21.05 СЗ 5
{10}
н/о н/о +15.6 +11.6 77 +14 +14 1015.8 1014.9
03 21.05 СЗ 3
{6}
н/о н/о +15.5 +11.5 77 +15 +15 1016.0 1015.0
04 21.05 З 2
{9}
н/о н/о +15.2 +11.8 80 +15 +15 1015.9 1014.9
05 21.05 СЗ 2 н/о н/о +15.3 +11.3 77 +15 +15 1016.1 1015.1
06 21.05 З 2 н/о н/о +15.7 +11.9 78 +16 +16 1016.5 1015.6 +14.4
07 21.05 С 5-8
{8}
н/о н/о +17.5 +11.9 70 +17 +17 1016.7 1015.7
08 21.05 СЗ 4-7
{8}
н/о н/о +18.9 +12.5 66 +20 +20 1017.2 1016.3
09 21.05 С 4-8
{8}
н/о н/о +19.4 +12.6 65 +21 +27 комфорт 1017.4 1016.4
10 21.05 С 3-5
{8}
н/о н/о +20.7 +12.4 59 +23 +23 комфорт 1017.5 1016.5
11 21.05 СЗ 5 н/о н/о +20.8 +12.7 60 +23 +23 комфорт 1017.1 1016.2
12 21.05 ЮЗ 7 20 км 3/3 900 м
[Cu hum]
+21.0 +14.5 66 +24 +28 комфорт 1017.0 1016.1
13 21.05 З 8 н/о н/о +21.1 +14.2 65 +24 +24 комфорт 1016.5 1015.6
14 21.05 З 9 н/о н/о +21.0 +14.6 67 +24 +24 комфорт 1016.1 1015.2
15 21.05 З 8
{12}
н/о н/о +21.7 +14.9 65 +25 +27 комфорт 1015.8 1014.8
16 21.05 З 8 н/о н/о +22.1 +13.7 59 +25 +25 комфорт 1015.4 1014.5
17 21.05 З 9 н/о н/о +22.5 +12.7 54 +25 +25 комфорт 1015.0 1014.0
18 21.05 З 9
{14}
н/о н/о +21.9 +12.8 56 +24 +24 комфорт 1015.0 1014.0 +23.0
19 21.05 СЗ 7 н/о н/о +22.7 +11.0 48 +25 +25 комфорт 1015.3 1014.4
20 21.05 СЗ 5
{9}
н/о н/о +20.6 +11.6 56 +22 +22 комфорт 1016.1 1015.1
21 21.05 СЗ 5
{8}
н/о н/о +19.0 +12.1 64 +20 +20 1016.8 1015.9
22 21.05 СЗ 5
{8}
н/о н/о +17.8 +12.2 70 +17 +17 1017.4 1016.4
23 21.05 СЗ 4
{7}
н/о н/о +17.0 +11.9 72 +17 +17 1016.9 1015.9
00 22.05 СЗ 4 н/о н/о +16.5 +11.2 71 +16 +16 1016.8 1015.8
01 22.05 С 1
{5}
н/о н/о +16.7 +10.6 67 +18 +18 1016.4 1015.5
02 22.05 СЗ 1 н/о н/о +15.3 +11.2 77 +16 +16 1016.2 1015.2
03 22.05 штиль 0 н/о н/о +15.6 +12.3 81 +15 +15 1016.0 1015.0
04 22.05 штиль 0 н/о н/о +15.6 +11.7 78 +15 +15 1016.0 1015.0
05 22.05 З 1 н/о н/о +14.0 +11.2 83 +14 +14 1016.1 1015.1
06 22.05 З 2 н/о н/о +15.2 +12.2 82 +15 +15 1016.7 1015.7 +13.9
07 22.05 З 2 н/о н/о +17.8 +13.2 74 +18 +18 1017.1 1016.1
08 22.05 н/о н/о +19.4 +12.8 66 1017.4 1016.4
09 22.05 С 3 н/о н/о +20.0 +12.7 63 +22 +22 комфорт 1017.5 1016.6
10 22.05 СЗ 3
{5}
н/о н/о +20.6 +12.1 58 +23 +23 комфорт 1017.8 1016.8

 

Местоположение метеостанции Фару (Португалия): широта 37.02 долгота -7.97 высота над уровнем моря 8 м.

В архиве по умолчанию представлена погода в Фару за последнюю неделю. Архивные данные за месяц целиком и за предыдущие месяцы, начиная с января 2011 года, Вы можете получить, выбрав интересующий диапазон дат из раскрывающегося списка и нажав кнопку "Ввод!".


*Определитесь, кто Вы:
робот инопланетянин человек

Внимание! Время в таблицах - всемирное. Для получения местного времени необходимо прибавить поправку, которая равна 0 ч.

Смотрите также архив погоды в соседних городах и на ближайших метеорологических станциях:

Погода в Айямонте - Исла Канель (Испания) (55 км)
Погода в Сагресе (Португалия) (87 км)
Погода в Уэльве (Испания) (97 км)
Погода в Эль-Ареносильо (Испания) (110 км)
Погода в Беже (Португалия) (112 км)
Погода в Бежа аэропорту (Португалия) (117 км)
Погода в Синише (Португалия) (130 км)
Погода в Алахар - Кабезо Молин (Испания) (149 км)
Погода в Кадисской бухте (Испания) (163 км)
Погода в Эворе (Португалия) (168 км)

Пояснения к столбцам:

Ветер - указаны скорость ветра в м/с - средняя за 10 мин, порывы в срок и между сроками (в фигурных скобках) и направление, откуда дует ветер: С - северный, СВ - северо-восточный, В - восточный, ЮВ - юго-восточный, Ю - южный, ЮЗ - юго-западный, З - западный, СЗ - северо-западный.
Видимость - горизонтальная дальность видимости в метрах или километрах. При видимости от 1 до 10 км при отсутствии осадков обычно наблюдается дымка, при ухудшении видимости до 1 км и менее - туман. В сухую погоду видимость может ухудшаться дымом, пылью или мглою.
Явления - указаны атмосферные явления, наблюдавшиеся в срок или в последний час перед сроком; фигурными скобками обозначены явления, наблюдавшиеся между сроками (за 1-3 часа до срока); квадратными скобками обозначены град или гололедные отложения с указанием их диаметра в мм.
Облачность - указаны через наклонную черту общая и нижняя облачность в баллах и высота нижней границы облаков в метрах; квадратными скобками обозначены формы облаков: Ci - перистые, Cs - перисто-слоистые, Cc - перисто-кучевые, Ac - высококучевые, As - высокослоистые, Sc - слоисто-кучевые, Ns - слоисто-дождевые, Cu - кучевые, Cb - кучево-дождевые. Подробнее классификацию облаков см. в Атласе облаков (PDF).
T - Температура воздуха - температура, измеренная на высоте 2 м над землей.
Td - Температура точки росы - температура, при понижении до которой содержащийся в воздухе водяной пар достигнет насыщения.
f - Относительная влажность воздуха - влажноcть воздуха, измеренная на высоте 2 м над землей.
Te - Эффективная температура - температура, которую ощущает одетый по сезону человек в тени. Характеристика душности погоды. При расчете учитывается влияние влажности воздуха и скорости ветра на теплоощущения человека.
Tes - Эффективная температура на солнце - температура, которую ощущает человек, с поправкой на солнечный нагрев. Характеристика знойности погоды. Зависит от высоты солнца над горизонтом, облачности и скорости ветра. Ночью, в пасмурную погоду, а также при ветре 12 м/с и более поправка равна нулю.
P - Атмосферное давление - приведенное к уровню моря атмосферное давление.
Po - Атмосферное давление - измеренное на уровне метеостанции атмосферное давление.
Tmin - Минимальная температура - минимум температуры воздуха на высоте 2 м над землей.
Tmax - Максимальная температура - максимум температуры воздуха на высоте 2 м над землей.
R - Количество осадков - Количество выпавших осадков за период времени, мм. При наведении курсора мыши на число - период времени, за который выпало указанное количество осадков.
R24 - Количество осадков - Количество выпавших осадков за 24 часа, мм.
S - Снежный покров - Высота снежного покрова, см. При наведении курсора мыши на число - состояние снежного покрова и степень покрытия местности в баллах.